EDT,Max TemperatureF,Mean TemperatureF,Min TemperatureF,Max Dew PointF,MeanDew PointF,Min DewpointF,Max Humidity, Mean Humidity, Min Humidity, Max Sea Level PressureIn, Mean Sea Level PressureIn, Min Sea Level PressureIn, Max VisibilityMiles, Mean VisibilityMiles, Min VisibilityMiles, Max Wind SpeedMPH, Mean Wind SpeedMPH, Max Gust SpeedMPH,PrecipitationIn, CloudCover, Events, WindDirDegrees
2012-8-1,82,74,65,69,64,60,93,72,51,29.88,29.85,29.83,10,9,5,16,6,21,T,5,Rain,252
2012-8-2,85,74,63,67,64,61,100,72,44,29.90,29.88,29.85,10,10,7,17,6,18,0.00,4,Fog,224
2012-8-3,88,78,68,71,67,64,87,71,55,30.04,29.98,29.90,10,10,10,12,5,,T,5,,190
2012-8-4,92,81,69,72,69,66,97,71,44,30.08,30.04,29.97,10,10,5,20,8,28,0.00,2,,178
2012-8-5,87,78,68,73,69,64,90,76,61,30.01,29.91,29.87,10,8,0,33,13,43,1.70,6,Fog-Rain-Thunderstorm,230
2012-8-6,77,68,59,62,57,53,93,71,49,30.12,30.07,30.03,10,10,10,14,6,,0.00,4,,265
2012-8-7,84,71,57,61,56,53,93,65,37,30.03,29.98,29.92,10,10,10,15,6,21,0.00,1,,222
2012-8-8,87,75,62,66,63,59,93,68,43,29.97,29.93,29.91,10,10,7,26,6,35,0.00,4,Thunderstorm,213
2012-8-9,80,73,65,68,65,63,87,75,62,29.91,29.88,29.81,10,10,10,16,5,20,T,7,Rain-Thunderstorm,209
2012-8-10,78,72,66,68,66,64,93,81,69,29.83,29.73,29.68,10,8,0,15,5,25,0.66,8,Fog-Rain-Thunderstorm,170
2012-8-11,76,70,63,65,60,56,93,74,54,29.87,29.79,29.72,10,10,10,23,11,28,0.00,3,,205
2012-8-12,76,69,62,65,61,58,93,79,64,29.96,29.90,29.86,10,10,10,20,9,28,0.09,5,,219
2012-8-13,81,72,62,63,61,58,100,73,45,30.01,29.97,29.95,10,10,10,12,5,14,0.00,5,,239
2012-8-14,80,73,65,66,64,63,100,79,58,29.96,29.89,29.83,10,8,2,21,3,26,0.18,8,Rain-Thunderstorm,239
2012-8-15,78,70,61,65,61,54,100,73,46,29.95,29.92,29.88,10,6,0,14,4,26,0.00,5,Fog,283
2012-8-16,81,70,59,64,59,57,97,71,45,29.98,29.91,29.80,10,9,4,13,6,18,0.00,2,,226
2012-8-17,75,68,61,66,60,53,87,71,54,29.91,29.81,29.72,10,9,4,18,9,25,0.02,7,Rain,256
2012-8-18,72,62,51,54,50,46,96,70,44,30.00,29.96,29.92,10,10,10,15,5,18,0.00,2,,271
2012-8-19,77,65,52,56,52,48,96,67,38,30.00,29.95,29.88,10,10,10,12,5,18,0.00,4,,204
2012-8-20,74,64,53,56,53,47,93,69,44,29.98,29.91,29.88,10,10,10,14,4,17,0.00,4,,298
2012-8-21,77,65,52,55,51,46,100,68,36,30.10,30.05,29.99,10,10,10,10,3,13,0.00,2,,224
2012-8-22,80,67,54,60,55,51,93,68,42,30.16,30.12,30.10,10,10,10,9,5,,0.00,3,,228
2012-8-23,83,70,56,60,56,54,93,67,40,30.17,30.14,30.11,10,10,9,12,5,16,0.00,0,,232
2012-8-24,87,73,58,60,57,53,93,63,32,30.19,30.16,30.13,10,10,9,13,5,16,0.00,1,,187
2012-8-25,88,75,61,63,59,56,93,64,34,30.23,30.19,30.15,10,10,6,10,6,15,0.00,1,,200
2012-8-26,84,72,60,64,61,56,90,71,51,30.27,30.19,30.11,10,10,7,14,4,18,0.00,3,,186
2012-8-27,81,73,65,70,66,61,97,82,67,30.11,30.00,29.91,10,8,4,14,6,20,0.08,7,Rain,211
2012-8-28,79,69,59,67,61,54,93,71,48,30.01,29.95,29.89,10,9,5,20,9,25,0.00,4,,285
2012-8-29,72,62,52,55,49,41,87,62,36,30.09,30.05,30.01,10,10,10,15,6,21,0.00,3,,312
2012-8-30,84,68,51,59,53,48,89,65,40,30.11,30.05,29.99,10,10,10,17,9,21,0.00,1,,224
2012-8-31,93,76,59,69,59,52,74,55,36,30.01,29.94,29.87,10,10,10,28,13,38,0.00,2,,240